| time (UTC) | temp C | wind direction | speed KPH | gust KPH | rain 1hr cm | rain 24hr cm | rain mn cm | humidity % | barometer mb |
| 20260508131601 | 8 | 264 | 1.6 | 4.8 | 0.00 | 0.00 | 0.00 | 90 | 1016.9 |
| 20260508130058 | 7 | 0 | 0.0 | 3.2 | 0.00 | 0.00 | 0.00 | 91 | 1017.1 |
| 20260508124559 | 6 | 0 | 0.0 | 3.2 | 0.00 | 0.00 | 0.00 | 92 | 1017.0 |
| 20260508123115 | 5 | 0 | 0.0 | 1.6 | 0.00 | 0.00 | 0.00 | 92 | 1017.0 |
| 20260508121558 | 5 | 0 | 0.0 | 0.0 | 0.00 | 0.00 | 0.00 | 92 | 1016.8 |
| 20260508120100 | 4 | 0 | 0.0 | 0.0 | 0.00 | 0.00 | 0.00 | 92 | 1016.9 |
| 20260508114554 | 3 | 224 | 0.0 | 1.6 | 0.00 | 0.00 | 0.00 | 92 | 1016.8 |
| 20260508113103 | 2 | 0 | 0.0 | 0.0 | 0.00 | 0.00 | 0.00 | 91 | 1016.7 |
| 20260508111556 | 2 | 0 | 0.0 | 0.0 | 0.00 | 0.00 | 0.00 | 91 | 1016.6 |
| 20260508110057 | 2 | 0 | 0.0 | 0.0 | 0.00 | 0.00 | 0.00 | 91 | 1016.5 |
| 20260508104601 | 2 | 0 | 0.0 | 0.0 | 0.00 | 0.00 | 0.00 | 90 | 1016.4 |
| 20260508103058 | 2 | 0 | 0.0 | 0.0 | 0.00 | 0.00 | 0.00 | 90 | 1016.2 |
| 20260508101559 | 2 | 0 | 0.0 | 0.0 | 0.00 | 0.00 | 0.00 | 90 | 1016.2 |
| 20260508100058 | 2 | 0 | 0.0 | 0.0 | 0.00 | 0.00 | 0.00 | 90 | 1016.1 |
| 20260508094612 | 2 | 0 | 0.0 | 0.0 | 0.00 | 0.00 | 0.00 | 90 | 1016.0 |
| 20260508093056 | 2 | 0 | 0.0 | 0.0 | 0.00 | 0.00 | 0.00 | 90 | 1016.0 |
| 20260508091601 | 3 | 0 | 0.0 | 0.0 | 0.00 | 0.00 | 0.00 | 90 | 1015.9 |
| 20260508090100 | 3 | 0 | 0.0 | 0.0 | 0.00 | 0.00 | 0.00 | 89 | 1015.7 |
| 20260508084557 | 3 | 0 | 0.0 | 1.6 | 0.00 | 0.00 | 0.00 | 89 | 1015.8 |
| 20260508083055 | 3 | 158 | 0.0 | 0.0 | 0.00 | 0.00 | 0.00 | 89 | 1015.7 |
| 20260508081617 | 3 | 0 | 0.0 | 3.2 | 0.00 | 0.00 | 0.00 | 89 | 1015.8 |
| 20260508074558 | 3 | 0 | 0.0 | 1.6 | 0.00 | 0.00 | 0.00 | 88 | 1015.8 |
| 20260508073058 | 3 | 0 | 0.0 | 1.6 | 0.00 | 0.00 | 0.00 | 88 | 1015.7 |
| 20260508071558 | 4 | 0 | 0.0 | 0.0 | 0.00 | 0.00 | 0.00 | 88 | 1015.7 |
| 20260508070057 | 4 | 0 | 0.0 | 0.0 | 0.00 | 0.00 | 0.00 | 87 | 1015.6 |
| 20260508064556 | 4 | 0 | 0.0 | 3.2 | 0.00 | 0.00 | 0.00 | 87 | 1015.7 |
| 20260508063104 | 4 | 158 | 0.0 | 0.0 | 0.00 | 0.00 | 0.00 | 87 | 1015.8 |
| 20260508061557 | 5 | 0 | 0.0 | 3.2 | 0.00 | 0.00 | 0.00 | 86 | 1015.8 |
| 20260508060105 | 5 | 0 | 0.0 | 1.6 | 0.00 | 0.00 | 0.00 | 85 | 1015.8 |
| 20260508054559 | 5 | 0 | 0.0 | 3.2 | 0.00 | 0.00 | 0.00 | 85 | 1015.8 |
| 20260508053102 | 5 | 0 | 0.0 | 0.0 | 0.00 | 0.00 | 0.00 | 84 | 1015.6 |
| 20260508051556 | 5 | 0 | 0.0 | 0.0 | 0.00 | 0.00 | 0.00 | 83 | 1015.7 |
| 20260508050110 | 6 | 0 | 0.0 | 0.0 | 0.00 | 0.00 | 0.00 | 83 | 1015.8 |
| 20260508044600 | 6 | 0 | 0.0 | 0.0 | 0.00 | 0.00 | 0.00 | 82 | 1015.8 |
| 20260508043154 | 6 | 0 | 0.0 | 0.0 | 0.00 | 0.00 | 0.00 | 81 | 1015.7 |
| 20260508041557 | 7 | 0 | 0.0 | 3.2 | 0.00 | 0.00 | 0.00 | 79 | 1015.6 |
| 20260508040104 | 7 | 0 | 1.6 | 6.4 | 0.00 | 0.00 | 0.00 | 78 | 1015.8 |
| 20260508034633 | 7 | 0 | 0.0 | 0.0 | 0.00 | 0.00 | 0.00 | 76 | 1015.5 |
| 20260508033057 | 8 | 0 | 0.0 | 4.8 | 0.00 | 0.00 | 0.00 | 74 | 1015.5 |
| 20260508031557 | 8 | 208 | 0.0 | 4.8 | 0.00 | 0.00 | 0.00 | 71 | 1015.5 |
| 20260508030055 | 8 | 225 | 0.0 | 3.2 | 0.00 | 0.00 | 0.00 | 67 | 1015.4 |
| 20260508024557 | 9 | 229 | 1.6 | 3.2 | 0.00 | 0.00 | 0.00 | 64 | 1015.1 |
| 20260508023058 | 10 | 232 | 1.6 | 4.8 | 0.00 | 0.00 | 0.00 | 60 | 1014.9 |
| 20260508021602 | 11 | 0 | 0.0 | 0.0 | 0.00 | 0.00 | 0.00 | 55 | 1014.6 |
| 20260508020105 | 11 | 0 | 0.0 | 1.6 | 0.00 | 0.00 | 0.00 | 53 | 1014.4 |
| 20260508014558 | 12 | 0 | 0.0 | 4.8 | 0.00 | 0.00 | 0.00 | 48 | 1014.2 |
| 20260508013057 | 13 | 308 | 1.6 | 6.4 | 0.00 | 0.00 | 0.00 | 46 | 1014.0 |
| 20260508011557 | 13 | 343 | 3.2 | 16.1 | 0.00 | 0.00 | 0.00 | 45 | 1013.9 |
| 20260508010054 | 14 | 335 | 8.0 | 14.5 | 0.00 | 0.00 | 0.00 | 38 | 1013.7 |
| 20260508004601 | 14 | 360 | 8.0 | 16.1 | 0.00 | 0.05 | 0.00 | 39 | 1013.6 |
| 20260508003055 | 15 | 322 | 6.4 | 17.7 | 0.00 | 0.05 | 0.00 | 38 | 1013.5 |
| 20260508001556 | 15 | 322 | 6.4 | 19.3 | 0.00 | 0.05 | 0.00 | 37 | 1013.4 |
| 20260508000059 | 16 | 350 | 3.2 | 11.3 | 0.00 | 0.05 | 0.00 | 38 | 1013.1 |
| 20260507234558 | 16 | 340 | 11.3 | 24.1 | 0.00 | 0.08 | 0.00 | 35 | 1012.8 |
| 20260507233055 | 16 | 335 | 19.3 | 30.6 | 0.00 | 0.08 | 0.00 | 33 | 1012.7 |
| 20260507231558 | 16 | 349 | 14.5 | 30.6 | 0.00 | 0.08 | 0.00 | 35 | 1012.4 |
| 20260507230101 | 17 | 317 | 11.3 | 24.1 | 0.00 | 0.08 | 0.00 | 36 | 1012.5 |
| 20260507224600 | 17 | 270 | 14.5 | 29.0 | 0.00 | 0.08 | 0.00 | 35 | 1012.5 |
| 20260507223056 | 17 | 318 | 14.5 | 20.9 | 0.00 | 0.08 | 0.00 | 38 | 1012.2 |
| 20260507221557 | 16 | 351 | 11.3 | 24.1 | 0.00 | 0.08 | 0.00 | 38 | 1012.3 |
| 20260507220055 | 17 | 315 | 9.7 | 32.2 | 0.00 | 0.08 | 0.00 | 38 | 1012.1 |
| 20260507214603 | 17 | 278 | 14.5 | 25.7 | 0.00 | 0.08 | 0.00 | 38 | 1011.9 |
| 20260507213057 | 17 | 264 | 8.0 | 16.1 | 0.00 | 0.08 | 0.00 | 39 | 1011.9 |
| 20260507211600 | 17 | 43 | 8.0 | 22.5 | 0.00 | 0.08 | 0.00 | 45 | 1011.7 |
| 20260507210105 | 16 | 309 | 4.8 | 22.5 | 0.00 | 0.08 | 0.00 | 44 | 1011.9 |
| 20260507204555 | 17 | 341 | 12.9 | 24.1 | 0.00 | 0.13 | 0.00 | 40 | 1011.8 |
| 20260507203110 | 16 | 308 | 16.1 | 22.5 | 0.00 | 0.13 | 0.00 | 44 | 1011.6 |
| 20260507201600 | 17 | 301 | 14.5 | 24.1 | 0.00 | 0.13 | 0.00 | 43 | 1011.6 |
| 20260507200108 | 17 | 302 | 11.3 | 24.1 | 0.00 | 0.13 | 0.00 | 43 | 1011.7 |
| 20260507194554 | 17 | 341 | 14.5 | 22.5 | 0.00 | 0.18 | 0.00 | 43 | 1011.9 |
| 20260507193058 | 16 | 225 | 9.7 | 22.5 | 0.00 | 0.18 | 0.00 | 44 | 1011.9 |
| 20260507191602 | 17 | 322 | 14.5 | 25.7 | 0.00 | 0.18 | 0.00 | 44 | 1012.2 |
| 20260507190103 | 16 | 235 | 6.4 | 22.5 | 0.00 | 0.18 | 0.00 | 46 | 1012.2 |
| 20260507184559 | 16 | 358 | 8.0 | 19.3 | 0.00 | 0.18 | 0.00 | 47 | 1012.5 |
| 20260507183101 | 15 | 359 | 11.3 | 20.9 | 0.00 | 0.18 | 0.00 | 49 | 1012.8 |
| 20260507181604 | 16 | 335 | 4.8 | 19.3 | 0.00 | 0.18 | 0.00 | 57 | 1012.6 |
| 20260507180056 | 15 | 314 | 12.9 | 22.5 | 0.00 | 0.18 | 0.00 | 52 | 1012.7 |
| 20260507174604 | 16 | 347 | 11.3 | 19.3 | 0.00 | 0.20 | 0.00 | 48 | 1013.0 |
| 20260507173104 | 16 | 247 | 8.0 | 20.9 | 0.00 | 0.20 | 0.00 | 52 | 1013.0 |
| 20260507171605 | 16 | 342 | 6.4 | 19.3 | 0.00 | 0.20 | 0.00 | 53 | 1013.1 |
| 20260507170104 | 15 | 8 | 3.2 | 17.7 | 0.00 | 0.20 | 0.00 | 52 | 1013.2 |
| 20260507164606 | 15 | 6 | 14.5 | 22.5 | 0.00 | 0.23 | 0.00 | 51 | 1013.4 |
| 20260507163058 | 15 | 321 | 1.6 | 6.4 | 0.00 | 0.23 | 0.00 | 59 | 1013.4 |
| 20260507161558 | 15 | 225 | 1.6 | 12.9 | 0.00 | 0.23 | 0.00 | 61 | 1013.6 |
| 20260507160058 | 15 | 299 | 1.6 | 8.0 | 0.00 | 0.23 | 0.00 | 58 | 1013.8 |
| 20260507154559 | 15 | 0 | 1.6 | 9.7 | 0.00 | 0.28 | 0.00 | 59 | 1013.8 |
| 20260507153106 | 14 | 35 | 1.6 | 8.0 | 0.00 | 0.28 | 0.00 | 60 | 1013.8 |
| 20260507151556 | 15 | 134 | 1.6 | 11.3 | 0.00 | 0.28 | 0.00 | 60 | 1013.8 |
| 20260507150059 | 13 | 249 | 1.6 | 9.7 | 0.00 | 0.28 | 0.00 | 62 | 1013.9 |
| 20260507144558 | 13 | 273 | 3.2 | 12.9 | 0.00 | 0.28 | 0.00 | 62 | 1014.1 |
| 20260507143100 | 13 | 104 | 1.6 | 11.3 | 0.00 | 0.28 | 0.00 | 61 | 1014.0 |
| 20260507141556 | 12 | 120 | 3.2 | 11.3 | 0.00 | 0.28 | 0.00 | 62 | 1014.2 |
| 20260507134612 | 11 | 0 | 0.0 | 6.4 | 0.00 | 0.28 | 0.00 | 79 | 1014.6 |
| 20260507133134 | 11 | 0 | 0.0 | 3.2 | 0.00 | 0.28 | 0.00 | 84 | 1014.6 |